When you browse on this site, cookies collect data to enhance your experience and personalize the content and advertising you see.
Visit our Privacy Policy to learn more. By continuing to use the site, you agree to this use of cookies and data.
  • en Belgique
  • Liste des pays
  • À 7 jours
  • Température de l'eau
  • Carte météo
  • Widgets météo
  • user-avatar
    Se connecter

    Météo par heure à Lemeshiha

    Ce jour, 17 Août, Samedi

    Heure Température Précipitation Vent Pression Humidité
    00:00 +12°C° 0 mm 1 m/s 742 mmHg 91%
    01:00 +12°C° 0 mm 1 m/s 742 mmHg 92%
    02:00 +12°C° 0 mm 2 m/s 743 mmHg 90%
    03:00 +12°C° 0 mm 2 m/s 743 mmHg 89%
    04:00 +12°C° 0 mm 2 m/s 742 mmHg 89%
    05:00 +12°C° 0 mm 2 m/s 742 mmHg 88%
    06:00 +13°C° 0 mm 2 m/s 742 mmHg 86%
    07:00 +14°C° 0 mm 2 m/s 742 mmHg 83%
    08:00 +14°C° 0 mm 3 m/s 742 mmHg 81%
    09:00 +14°C° 0 mm 3 m/s 742 mmHg 80%
    10:00 +16°C° 0 mm 3 m/s 742 mmHg 78%
    11:00 +16°C° 0 mm 3 m/s 742 mmHg 77%
    12:00 +17°C° 0 mm 2 m/s 742 mmHg 76%
    13:00 +17°C° 0 mm 2 m/s 742 mmHg 74%
    14:00 +18°C° 0 mm 2 m/s 742 mmHg 72%
    15:00 +18°C° 0 mm 2 m/s 741 mmHg 73%
    16:00 +18°C° 0 mm 2 m/s 741 mmHg 73%
    17:00 +18°C° 0 mm 2 m/s 741 mmHg 73%
    18:00 +17°C° 0 mm 2 m/s 741 mmHg 76%
    19:00 +17°C° 0 mm 2 m/s 740 mmHg 79%
    20:00 +16°C° 0 mm 3 m/s 740 mmHg 82%
    21:00 +14°C° 0 mm 3 m/s 740 mmHg 85%
    22:00 +13°C° 0 mm 3 m/s 740 mmHg 88%
    23:00 +14°C° 0 mm 2 m/s 739 mmHg 91%

    Demain, 18 Août, Dimanche

    Heure Température Précipitation Vent Pression Humidité
    00:00 +13°C° 0 mm 2 m/s 739 mmHg 91%
    01:00 +13°C° 0 mm 2 m/s 739 mmHg 92%
    02:00 +12°C° 0 mm 2 m/s 739 mmHg 92%
    03:00 +12°C° 0 mm 3 m/s 738 mmHg 92%
    04:00 +12°C° 0 mm 3 m/s 738 mmHg 92%
    05:00 +12°C° 0 mm 3 m/s 738 mmHg 91%
    06:00 +13°C° 0 mm 3 m/s 738 mmHg 88%
    07:00 +14°C° 0 mm 3 m/s 738 mmHg 85%
    08:00 +14°C° 0 mm 3 m/s 738 mmHg 82%
    09:00 +16°C° 0 mm 3 m/s 738 mmHg 80%
    10:00 +17°C° 0 mm 3 m/s 738 mmHg 77%
    11:00 +17°C° 0 mm 3 m/s 738 mmHg 75%
    12:00 +18°C° 0 mm 2 m/s 739 mmHg 74%
    13:00 +18°C° 0 mm 2 m/s 739 mmHg 73%
    14:00 +19°C° 0 mm 2 m/s 739 mmHg 72%
    15:00 +19°C° 0 mm 2 m/s 739 mmHg 72%
    16:00 +21°C° 0 mm 1 m/s 740 mmHg 72%
    17:00 +21°C° 0 mm 1 m/s 740 mmHg 73%
    18:00 +19°C° 0 mm 1 m/s 740 mmHg 79%
    19:00 +18°C° 0 mm 1 m/s 740 mmHg 86%
    20:00 +15°C° 0 mm 1 m/s 740 mmHg 93%
    21:00 +14°C° 0 mm 1 m/s 741 mmHg 94%
    22:00 +14°C° 0 mm 1 m/s 741 mmHg 94%
    23:00 +13°C° 0 mm 1 m/s 741 mmHg 95%

    Après-demain, 19 Août, Lundi

    Heure Température Précipitation Vent Pression Humidité
    00:00 +13°C° 0 mm 1 m/s 741 mmHg 95%
    01:00 +12°C° 0 mm 1 m/s 742 mmHg 94%
    02:00 +12°C° 0 mm 1 m/s 742 mmHg 94%
    03:00 +12°C° 0 mm 2 m/s 742 mmHg 95%
    04:00 +12°C° 0 mm 2 m/s 742 mmHg 95%
    05:00 +12°C° 0 mm 2 m/s 742 mmHg 96%
    06:00 +14°C° 0 mm 2 m/s 742 mmHg 89%
    07:00 +16°C° 0 mm 2 m/s 743 mmHg 83%
    08:00 +18°C° 0 mm 3 m/s 743 mmHg 77%
    09:00 +20°C° 0 mm 3 m/s 743 mmHg 71%
    10:00 +22°C° 0 mm 3 m/s 743 mmHg 65%
    11:00 +25°C° 0 mm 4 m/s 743 mmHg 60%
    12:00 +25°C° 0 mm 4 m/s 744 mmHg 58%
    13:00 +26°C° 0 mm 4 m/s 744 mmHg 56%
    14:00 +26°C° 0 mm 4 m/s 744 mmHg 54%
    15:00 +26°C° 0 mm 3 m/s 744 mmHg 58%
    16:00 +25°C° 0 mm 3 m/s 744 mmHg 63%
    17:00 +25°C° 0 mm 3 m/s 744 mmHg 67%
    18:00 +24°C° 0 mm 2 m/s 744 mmHg 73%
    19:00 +21°C° 0 mm 2 m/s 744 mmHg 79%
    20:00 +20°C° 0 mm 2 m/s 744 mmHg 85%
    21:00 +19°C° 0 mm 2 m/s 744 mmHg 87%
    22:00 +19°C° 0 mm 3 m/s 744 mmHg 89%
    23:00 +18°C° 0 mm 3 m/s 745 mmHg 92%

    20 Août, Mardi

    Heure Température Précipitation Vent Pression Humidité
    00:00 +18°C° 0 mm 2 m/s 745 mmHg 94%
    01:00 +17°C° 0 mm 2 m/s 745 mmHg 96%
    02:00 +17°C° 0 mm 2 m/s 745 mmHg 97%
    03:00 +16°C° 0 mm 2 m/s 745 mmHg 98%
    04:00 +16°C° 0 mm 2 m/s 745 mmHg 98%
    05:00 +16°C° 0 mm 2 m/s 745 mmHg 99%
    06:00 +17°C° 0 mm 2 m/s 745 mmHg 95%
    07:00 +19°C° 0 mm 2 m/s 745 mmHg 91%
    08:00 +20°C° 0 mm 2 m/s 745 mmHg 87%
    09:00 +21°C° 0 mm 2 m/s 746 mmHg 81%
    10:00 +24°C° 0 mm 2 m/s 746 mmHg 75%
    11:00 +26°C° 0 mm 2 m/s 746 mmHg 68%
    12:00 +26°C° 0.7 mm 2 m/s 746 mmHg 72%
    13:00 +26°C° 0.7 mm 2 m/s 746 mmHg 75%
    14:00 +26°C° 0.7 mm 2 m/s 746 mmHg 78%
    15:00 +25°C° 1.1 mm 1 m/s 746 mmHg 82%
    16:00 +25°C° 1.1 mm 1 m/s 746 mmHg 85%
    17:00 +24°C° 1.1 mm 1 m/s 746 mmHg 88%
    18:00 +23°C° 1.3 mm 1 m/s 746 mmHg 91%
    19:00 +22°C° 1.3 mm 1 m/s 746 mmHg 93%
    20:00 +20°C° 1.3 mm 1 m/s 746 mmHg 95%
    21:00 +20°C° 0 mm 1 m/s 746 mmHg 96%
    22:00 +19°C° 0 mm 1 m/s 746 mmHg 96%
    23:00 +19°C° 0 mm 1 m/s 746 mmHg 97%

    21 Août, Mercredi

    Heure Température Précipitation Vent Pression Humidité
    00:00 +19°C° 0 mm 1 m/s 746 mmHg 97%
    01:00 +18°C° 0 mm 1 m/s 746 mmHg 97%
    02:00 +16°C° 0 mm 0 m/s 746 mmHg 98%
    03:00 +16°C° 0 mm 0 m/s 746 mmHg 98%
    04:00 +15°C° 0 mm 0 m/s 746 mmHg 98%
    05:00 +15°C° 0 mm 0 m/s 746 mmHg 98%
    06:00 +17°C° 0 mm 0 m/s 746 mmHg 96%
    07:00 +18°C° 0 mm 0 m/s 746 mmHg 93%
    08:00 +20°C° 0 mm 0 m/s 747 mmHg 91%
    09:00 +23°C° 0 mm 1 m/s 746 mmHg 85%
    10:00 +24°C° 0 mm 1 m/s 746 mmHg 79%
    11:00 +25°C° 0 mm 1 m/s 746 mmHg 73%
    12:00 +26°C° 0.2 mm 2 m/s 746 mmHg 73%
    13:00 +26°C° 0.2 mm 2 m/s 745 mmHg 73%
    14:00 +27°C° 0.2 mm 2 m/s 745 mmHg 72%
    15:00 +27°C° 0.3 mm 2 m/s 744 mmHg 75%
    16:00 +26°C° 0.3 mm 2 m/s 744 mmHg 77%
    17:00 +26°C° 0.3 mm 2 m/s 743 mmHg 80%
    18:00 +25°C° 0.3 mm 2 m/s 743 mmHg 84%
    19:00 +24°C° 0.3 mm 2 m/s 743 mmHg 88%
    20:00 +21°C° 0.3 mm 3 m/s 742 mmHg 92%
    21:00 +21°C° 0.1 mm 3 m/s 742 mmHg 92%
    22:00 +21°C° 0.1 mm 3 m/s 742 mmHg 92%
    23:00 +20°C° 0.1 mm 3 m/s 742 mmHg 93%

    22 Août, Jeudi

    Heure Température Précipitation Vent Pression Humidité
    00:00 +20°C° 0 mm 3 m/s 742 mmHg 93%
    01:00 +19°C° 0 mm 3 m/s 742 mmHg 93%
    02:00 +18°C° 0 mm 3 m/s 742 mmHg 94%
    03:00 +18°C° 0 mm 3 m/s 742 mmHg 93%
    04:00 +17°C° 0 mm 4 m/s 742 mmHg 93%
    05:00 +17°C° 0 mm 4 m/s 743 mmHg 93%
    06:00 +15°C° 0 mm 4 m/s 743 mmHg 91%
    07:00 +15°C° 0 mm 4 m/s 744 mmHg 88%
    08:00 +15°C° 0 mm 4 m/s 745 mmHg 86%
    09:00 +15°C° 0 mm 4 m/s 745 mmHg 83%
    10:00 +15°C° 0 mm 4 m/s 746 mmHg 80%
    11:00 +17°C° 0 mm 4 m/s 746 mmHg 77%
    12:00 +18°C° 0 mm 3 m/s 747 mmHg 70%
    13:00 +20°C° 0 mm 3 m/s 747 mmHg 63%
    14:00 +21°C° 0 mm 3 m/s 747 mmHg 56%
    15:00 +21°C° 0 mm 3 m/s 747 mmHg 59%
    16:00 +20°C° 0 mm 2 m/s 747 mmHg 61%
    17:00 +20°C° 0 mm 2 m/s 747 mmHg 63%
    18:00 +18°C° 0 mm 2 m/s 747 mmHg 70%
    19:00 +16°C° 0 mm 2 m/s 747 mmHg 76%
    20:00 +14°C° 0 mm 1 m/s 747 mmHg 83%
    21:00 +14°C° 0 mm 1 m/s 748 mmHg 85%
    22:00 +13°C° 0 mm 1 m/s 748 mmHg 88%
    23:00 +13°C° 0 mm 1 m/s 748 mmHg 90%
    Voir plus